Regional Weather Roundup
Issued by NWS Northern Indiana

Home | Current Version | Previous Version | Graphics & Text | Print | Product List | Glossary On
Versions: 1 2 3 4 5 6 7 8 9 10 11 12 13 14 15 16 17 18 19 20 21 22 23 24 25 26 27 28 29 30 31 32 33 34 35 36 37 38 39 40 41 42 43 44 45 46 47 48 49 50
000
ASUS43 KIWX 050200
RWRIWX

KIWX WEATHER ROUNDUP
NATIONAL WEATHER SERVICE NORTHERN INDIANA
1000 PM EDT FRI SEP 04 2015

NOTE: "FAIR" INDICATES FEW OR NO CLOUDS BELOW 12,000 FEET WITH NO
SIGNIFICANT WEATHER AND/OR OBSTRUCTIONS TO VISIBILITY.

* THESE STATIONS ARE NOT UNDER NWS QUALITY CONTROL. THEY ALSO MAY NOT
  REPORT WEATHER SUCH AS PRECIPITATION OR FOG.

INZ001>027-050300-
NORTHERN INDIANA

CITY           SKY/WX    TMP DP  RH WIND       PRES   REMARKS
GARY*          CLEAR     73  68  83 NE9       30.05R
SOUTH BEND     MOCLDY    72  69  90 N6        30.05S
GOSHEN         MOCLDY    69  66  90 E3        30.06R
ANGOLA*        CLEAR     72  70  94 CALM      30.07R
FORT WAYNE     MOCLDY    68  65  90 SW8       30.08R
PERU/GRISSOM   MOCLDY    69  65  88 VRB2      30.06R

$$
INZ028>050-050300-
CENTRAL INDIANA

CITY           SKY/WX    TMP DP  RH WIND       PRES   REMARKS
LAFAYETTE      CLOUDY    72  64  76 SW3       30.06R
KOKOMO*        MOCLDY    68  63  83 CALM      30.06S
MUNCIE*        CLOUDY    69  61  75 S5        30.07S
INDIANAPOLIS   CLOUDY    75  66  73 E8        30.08R

$$
MIZ043>046-050>051-056>058-064>065-071>073-077>080-050300-
SOUTHWEST LOWER MICHIGAN

CITY           SKY/WX    TMP DP  RH WIND       PRES   REMARKS
BATTLE CREEK   MOCLDY    71  68  90 CALM      30.07R
BENTON HARBOR  PTCLDY    67  65  93 CALM      30.05R
COLDWATER*     MOCLDY    72  71  96 SE3       30.07R
HILLSDALE*     MOCLDY    71  71 100 CALM      30.08R
HOLLAND        PTCLDY    69  65  86 CALM      30.06R
GRAND RAPIDS   CLOUDY    73  68  84 CALM      30.06R
KALAMAZOO      PTCLDY    72  65  78 CALM      30.06R
STURGIS*       MOCLDY    72  70  94 CALM      30.06R
THREE RIVERS*  CLOUDY    75  69  82 CALM      30.07R

$$
OHZ001>008-015>018-024>025-050300-
NORTHWEST OHIO

CITY           SKY/WX    TMP DP  RH WIND       PRES   REMARKS
DEFIANCE       MOCLDY    73  68  84 CALM      30.06R
FINDLAY        CLOUDY    70  65  84 SW5       30.10R
TOLEDO EXPRESS CLOUDY    69  66  90 SE3       30.07R
TOLEDO METCALF CLOUDY    71  65  81 SE5       30.07R
LIMA           CLOUDY    68  65  90 NW5       30.10R

$$
AND FOR LAKE MICHIGAN COASTAL AND OPEN LAKE BUOY OBSERVATIONS

STATION/POSITION TEMP    WIND        PRES    VSBY  WAVE
                 AIR SEA DIR/SP/G                  HT/PER
                 (F)     (DEG/KT/KT) (MB)    (MI)  (FT/S)
CALUMET HARBOR    72      50/  7/  9   N/A
MICHIGAN CITY     71      40/  9/  9   N/A
BURNS HARBOR      72      70/ 12/ 13 1017.3S
SAINT JOSEPH      69      20/  1/  2 1017.9R
SOUTH LAKE BUOY   67 71   50/  6/  8   N/A
4 MI NW BRIDGMAN  71 76  100/  6/  8   N/A           1
MICHIGAN CITY     72 74  100/  8/  8   N/A           1

$$
&&



USA.gov is the U.S. government's official web portal to all federal, state and local government web resources and services.